Theta_e
319 319 319 320 321 321 322 322 322 323 324 324 324 324 324 324 324 325 325 325 325 326 327 325 325 325 326 325 325 323 317 302 299 298 298 300 312 321 324 326 325 325 323 307 305 303 299 297 297 298 294 295 294 294 296 298 295 287 285 280 281 279 282 284 285 284 288 285 286 286 288 287 285 287 288 290 288 287 286 286 286 288 287 289 289 289 289 289
319 319 319 320 320 321 321 322 322 323 323 323 324 324 324 324 324 325 325 325 325 326 326 325 325 324 324 324 324 325 305 301 297 296 298 310 323 326 326 325 325 323 318 303 304 302 299 297 296 296 290 292 293 294 296 295 293 287 282 283 280 279 285 287 286 287 285 285 285 286 286 285 286 286 288 285 284 284 283 284 284 284 285 287 287 288 288 287
319 319 319 319 320 320 321 322 322 322 323 323 324 324 324 324 325 325 325 326 326 326 326 325 325 324 324 323 322 322 307 300 296 295 300 319 324 324 324 325 323 322 306 303 305 305 301 300 298 295 291 291 288 292 293 290 295 288 286 281 279 283 286 286 288 289 289 287 285 285 286 285 286 286 288 286 282 283 281 281 282 281 282 284 285 286 286 286
318 319 319 319 320 320 321 321 322 322 323 323 324 324 324 324 325 325 325 326 326 326 325 325 325 324 323 323 323 310 300 294 291 295 300 319 322 324 324 324 323 317 307 307 306 306 304 302 297 296 293 290 288 291 291 291 288 290 283 282 285 285 286 288 287 288 287 287 286 285 285 285 286 286 285 284 284 283 282 284 282 282 282 283 284 285 285 285
318 318 319 319 319 320 320 321 322 323 323 324 324 324 324 324 324 325 325 326 326 325 325 325 325 324 322 322 321 301 296 287 290 297 302 318 322 323 323 323 320 306 306 304 306 305 305 300 296 294 292 288 288 289 290 290 290 287 288 285 285 285 287 288 287 287 287 286 285 284 286 286 286 284 283 284 283 280 282 285 284 284 284 284 284 284 284 284
317 318 318 318 319 319 320 321 322 322 323 324 324 324 324 324 325 325 325 325 326 325 325 325 324 323 323 321 300 299 295 281 295 298 314 318 320 321 320 319 317 305 300 298 297 297 293 293 293 289 288 288 286 287 288 289 292 287 287 286 285 285 288 287 287 287 287 287 284 284 286 284 282 283 283 283 284 284 287 286 285 284 285 285 284 284 283 284
317 317 318 318 319 319 320 320 321 322 323 323 323 323 324 324 324 325 325 325 326 326 325 324 323 322 321 320 301 298 294 293 295 300 312 317 318 315 317 312 310 299 300 299 297 294 292 294 292 290 289 286 287 289 292 291 291 288 287 287 289 287 288 287 288 287 284 285 287 286 287 286 284 284 283 283 284 286 286 286 285 286 286 285 284 283 283 283
317 317 317 318 318 319 320 320 321 322 322 323 323 324 324 324 324 324 325 325 325 325 324 323 322 321 320 306 300 291 291 291 298 300 310 314 305 305 308 303 302 298 297 296 296 295 292 292 292 291 288 287 291 292 291 292 289 289 287 289 287 287 287 287 285 286 286 287 284 285 285 284 283 283 283 282 285 286 286 286 286 285 284 284 284 283 283 283
317 317 317 317 318 318 320 320 321 321 322 322 323 324 324 324 324 324 324 324 325 325 323 323 321 317 317 300 291 291 289 295 301 301 300 299 299 301 301 303 301 297 295 295 296 296 295 292 292 294 290 288 290 290 287 290 284 290 290 289 286 286 287 286 288 286 286 287 285 285 284 283 283 285 282 283 285 286 286 285 284 284 283 283 283 283 283 283
317 317 317 317 318 318 319 320 321 321 321 322 323 323 324 324 323 322 323 324 323 324 323 322 322 316 301 294 291 289 293 298 299 300 298 297 299 300 301 299 299 297 294 292 296 296 294 295 294 295 294 290 293 289 288 291 290 292 290 289 286 285 287 287 287 286 285 287 285 286 282 283 284 285 279 283 285 285 285 283 282 283 282 283 283 283 282 283
317 317 317 317 318 319 319 320 320 320 321 322 323 323 324 323 322 323 323 325 323 325 322 322 322 306 298 295 291 287 300 299 299 298 297 297 299 299 299 299 299 298 295 292 293 296 297 296 298 296 294 291 293 289 288 290 293 291 289 289 287 285 286 286 286 286 286 287 285 286 282 282 284 282 281 283 285 285 284 283 281 282 282 282 282 282 282 283
317 317 317 318 318 319 319 320 320 321 322 322 322 323 322 320 321 322 324 323 323 324 323 322 320 298 294 294 292 291 297 300 298 296 297 298 299 300 301 303 299 299 296 294 293 295 298 297 296 293 289 295 289 290 289 290 292 290 289 286 284 282 286 285 284 285 286 286 285 283 282 281 281 280 282 284 285 284 283 282 281 281 281 281 281 282 282 282
317 317 317 318 318 319 319 320 320 321 321 323 324 321 320 319 320 321 322 321 321 323 323 322 315 302 295 290 292 298 297 296 298 297 299 298 298 298 300 300 298 299 299 297 295 297 298 295 294 291 293 292 291 285 291 292 290 287 285 285 282 279 278 283 286 284 286 287 285 286 278 278 279 283 282 284 284 283 282 281 281 281 281 281 281 281 281 282
316 317 317 317 318 319 319 319 320 321 321 323 323 320 319 320 320 320 321 321 322 322 323 321 306 296 290 288 297 298 298 299 296 297 296 299 298 298 297 299 298 297 300 298 297 297 298 294 294 292 294 289 288 294 289 287 285 282 283 281 275 276 275 281 284 283 284 286 285 287 278 281 281 281 282 283 284 283 281 281 280 280 280 280 280 281 281 281
316 317 317 318 318 318 318 320 320 320 321 320 320 319 319 318 319 320 322 318 319 320 320 317 300 296 290 293 296 298 313 297 297 296 295 296 295 296 297 298 298 296 296 298 298 295 297 295 293 289 286 289 289 286 279 280 279 279 277 273 275 273 276 282 286 283 281 285 285 286 278 279 281 282 282 283 283 282 281 280 280 280 280 279 279 280 280 280
316 316 317 318 318 318 319 319 319 319 319 319 319 319 319 318 319 321 322 317 320 319 309 299 298 293 288 287 294 304 294 295 297 297 295 295 295 296 296 294 295 294 297 297 295 296 296 294 289 288 288 288 285 276 276 277 275 275 277 271 273 275 276 280 283 284 284 282 283 283 279 281 281 280 282 283 283 282 280 278 279 279 279 279 279 280 280 280
316 317 318 318 317 318 318 318 318 318 319 319 319 317 318 319 318 316 320 317 312 312 302 298 297 296 289 294 297 294 292 294 295 296 298 298 295 296 295 294 294 295 294 294 294 293 292 290 287 285 284 283 282 276 270 270 272 272 275 274 275 275 277 277 283 282 280 281 280 282 279 279 282 281 281 282 282 281 279 279 279 279 279 279 279 279 279 280
316 317 317 317 318 318 318 317 318 318 318 319 318 316 310 317 318 313 307 305 304 302 300 300 296 292 287 291 290 292 294 292 296 295 297 298 295 295 294 293 294 292 290 290 291 290 288 286 284 281 280 282 282 281 275 269 271 272 274 273 275 275 276 278 277 282 281 281 279 279 277 279 281 283 280 283 282 280 279 279 279 279 279 279 279 279 279 279
317 317 317 317 318 318 317 317 317 318 318 318 318 320 318 314 302 300 300 299 296 290 288 290 290 283 283 288 289 291 294 296 294 296 297 298 296 295 295 295 294 292 290 285 288 286 284 284 283 281 280 279 279 278 275 278 277 276 275 274 275 274 276 278 282 283 280 279 279 277 277 279 281 282 282 280 281 279 279 279 279 279 280 280 279 279 279 278
316 317 317 317 317 317 316 317 318 318 318 310 306 307 299 292 291 290 295 297 291 292 291 292 292 292 289 289 292 295 296 293 294 296 298 299 295 294 295 293 292 291 286 285 285 285 284 280 274 275 278 281 280 279 278 279 278 277 277 276 276 276 277 278 279 281 281 280 277 279 279 277 279 280 280 280 280 279 279 279 279 279 279 279 278 278 278 278
317 317 317 317 316 316 317 317 317 317 317 306 301 301 296 290 285 287 289 292 292 292 290 292 293 291 291 292 292 293 290 290 291 295 297 300 294 292 291 290 287 285 284 285 285 286 285 280 278 280 280 280 282 280 278 278 277 277 276 275 275 275 275 278 279 280 281 279 279 280 278 277 278 278 279 280 279 278 278 278 278 278 278 278 277 277 277 278
316 317 316 317 316 317 317 317 317 318 313 302 301 298 297 298 298 295 289 287 294 294 292 291 290 292 290 292 293 294 290 289 292 294 298 298 294 289 289 289 285 283 284 282 280 278 279 276 281 281 281 281 279 278 278 278 278 275 275 273 271 275 277 280 279 280 282 280 278 279 276 277 277 278 279 278 278 279 279 279 278 277 277 276 276 276 276 277
316 316 316 317 316 317 317 317 316 314 302 301 298 296 298 302 303 300 293 289 289 294 291 290 290 288 290 292 293 293 289 288 285 292 294 295 291 291 287 285 283 282 284 281 279 276 276 278 281 281 278 277 277 277 277 277 277 274 274 273 272 276 274 274 280 280 280 278 277 278 276 276 277 278 278 279 278 278 278 278 277 277 276 276 275 276 276 276
314 315 315 316 317 316 317 316 313 307 301 300 298 299 302 300 301 303 295 286 287 292 294 293 291 290 289 292 294 293 287 288 288 290 295 292 288 289 287 286 281 282 282 280 280 279 278 281 282 278 278 278 278 276 277 275 275 276 277 274 272 276 277 275 277 279 280 278 278 276 276 274 275 274 275 277 278 277 277 277 276 276 276 276 277 277 277 277
314 315 315 316 315 316 315 315 305 302 301 298 299 301 300 300 301 304 292 288 284 287 295 295 293 291 293 296 295 294 291 289 289 291 293 292 290 287 287 288 281 280 281 281 279 279 281 283 284 280 277 277 277 276 277 277 274 274 274 277 277 277 277 278 278 277 275 273 277 277 268 269 273 274 274 275 275 275 275 275 275 275 275 276 276 277 278 279
312 314 316 316 316 315 317 303 300 301 297 295 301 302 300 299 302 302 288 279 275 282 290 287 296 290 298 293 294 291 289 285 291 293 294 294 294 291 285 282 285 282 282 283 282 281 282 283 281 280 276 277 277 277 277 278 273 271 276 277 277 277 277 277 276 276 269 267 275 278 267 263 272 272 273 273 273 273 274 274 274 274 275 276 276 277 277 277
312 313 315 316 316 314 300 297 302 304 300 304 302 299 299 300 299 301 292 274 270 284 286 291 292 291 298 292 290 289 278 282 291 293 294 295 291 292 284 281 282 283 284 281 277 275 282 281 278 277 276 276 276 276 278 278 273 272 276 278 278 277 276 276 276 275 272 276 277 276 273 265 266 271 273 274 273 272 273 273 273 274 275 276 276 277 277 277
313 313 313 315 316 311 298 303 303 299 298 305 300 299 299 300 301 296 281 269 270 289 285 287 293 295 294 292 292 286 286 287 284 289 293 294 291 288 285 281 281 281 282 278 272 278 280 280 279 279 276 277 276 278 279 279 276 277 278 279 277 277 277 277 275 273 273 273 268 272 274 268 266 271 273 274 271 271 272 272 272 273 274 275 276 277 277 277
313 313 313 314 315 313 307 305 302 300 302 297 298 300 301 301 296 290 275 270 282 284 297 289 300 291 288 290 287 285 286 288 285 288 293 292 293 288 281 282 283 282 283 281 278 277 281 281 282 279 277 277 279 279 277 278 276 276 278 278 278 277 276 276 273 272 270 269 261 270 273 265 267 271 272 273 271 270 270 271 272 273 273 274 274 276 276 276
313 313 313 313 312 306 302 298 299 302 299 298 298 299 299 294 290 278 269 269 287 279 290 289 288 285 285 285 282 285 286 285 286 287 289 285 289 290 287 286 282 279 277 280 280 280 281 285 285 282 280 281 280 280 279 278 279 279 277 277 277 275 274 273 272 270 265 260 264 271 272 271 262 270 270 271 270 269 270 271 272 273 273 274 275 275 275 275
313 313 312 310 300 301 302 300 302 298 297 297 300 299 296 286 275 270 268 275 287 285 284 284 282 286 282 282 280 283 283 281 285 284 284 286 285 286 284 280 283 276 275 275 272 280 278 281 284 283 285 283 280 280 279 278 278 277 275 273 275 272 272 269 268 265 260 262 264 271 271 272 262 265 271 272 270 270 270 268 270 272 272 273 274 275 275 275
313 312 312 301 299 303 302 300 303 297 296 298 298 291 291 283 277 274 275 286 279 280 281 279 281 282 282 280 280 281 280 281 282 282 279 278 278 280 279 277 276 270 269 273 275 278 275 280 278 281 286 281 279 277 277 277 277 277 274 274 270 265 265 264 267 264 262 264 269 271 272 269 267 270 272 273 272 270 270 272 271 272 273 273 273 274 274 274
312 311 311 304 300 296 299 300 297 298 298 296 290 287 278 273 269 271 272 276 278 283 280 284 282 281 281 279 279 281 281 281 282 281 281 279 279 278 279 280 279 274 271 271 272 273 274 276 279 279 280 282 280 276 276 274 275 276 274 268 264 261 259 260 262 259 259 268 270 271 272 268 270 271 274 272 272 272 272 273 274 274 273 273 273 274 274 274
312 310 299 300 298 300 301 298 297 298 297 294 289 287 278 275 271 285 274 274 280 281 283 281 282 280 280 279 281 281 278 280 281 281 279 277 277 275 277 280 280 277 273 274 272 270 266 269 274 278 276 280 279 279 278 276 276 274 275 272 266 265 261 260 257 258 263 266 270 272 264 255 261 268 274 274 273 273 274 274 274 274 273 273 273 273 273 272
312 304 297 298 298 299 298 297 297 297 290 290 285 277 274 271 270 273 273 275 277 281 282 281 281 277 279 278 279 280 281 278 280 277 277 277 275 275 276 277 279 279 276 270 268 269 274 272 277 280 281 280 278 280 279 278 275 275 274 273 266 264 268 263 263 259 264 265 264 263 264 265 269 274 276 275 274 274 275 274 273 272 272 272 272 271 271 272
308 302 303 298 296 298 296 298 296 298 288 287 284 278 274 271 274 276 277 283 281 280 281 279 279 275 274 274 276 277 283 279 279 275 274 275 278 276 278 278 277 278 274 270 268 267 272 270 276 281 279 278 280 279 279 278 267 273 274 267 271 276 272 263 267 270 267 263 264 263 267 271 273 272 272 274 272 273 273 272 272 271 272 271 271 271 271 271
298 298 298 296 299 299 297 297 297 290 292 286 281 274 273 275 281 277 285 282 282 283 278 274 276 276 274 274 274 275 279 279 277 276 275 277 275 278 277 277 280 278 278 276 270 269 265 273 280 278 277 278 281 279 280 279 279 273 265 273 278 276 274 265 261 261 261 258 264 267 266 267 267 261 272 271 271 271 271 271 271 271 271 270 270 270 271 271
300 296 295 296 301 297 296 297 293 289 288 288 279 284 279 279 283 283 282 281 283 281 275 276 276 279 273 275 274 274 279 276 278 275 276 277 275 280 277 275 278 279 278 278 273 272 274 269 273 275 277 279 281 277 277 278 278 277 274 275 272 261 263 267 263 262 261 261 263 267 269 268 265 266 269 269 269 269 270 270 270 269 269 269 269 270 271 271
294 290 289 295 300 298 296 293 292 290 288 282 275 281 281 280 283 282 283 282 282 281 276 278 276 278 278 273 275 274 276 273 275 276 273 275 272 278 278 277 277 279 279 279 276 276 276 266 271 276 276 278 277 275 270 272 276 278 278 276 274 273 267 266 266 268 266 263 263 263 267 264 269 268 269 268 270 270 270 269 268 269 269 269 269 270 270 271
295 288 285 295 297 297 297 297 294 289 285 280 275 276 280 281 283 282 281 284 282 278 278 278 280 275 276 278 278 274 276 276 276 275 275 276 276 280 277 279 277 280 279 278 277 278 270 275 264 273 277 276 271 273 271 272 267 270 271 266 270 267 275 273 267 265 264 263 263 263 261 265 269 271 269 269 270 270 269 268 268 269 269 270 270 270 270 270
288 286 288 295 297 299 294 294 287 281 278 279 279 281 282 281 282 283 283 283 284 284 281 280 279 277 279 276 274 278 277 275 275 274 275 276 275 270 279 279 280 277 279 275 273 273 266 270 265 272 272 272 274 276 276 275 275 273 271 268 271 266 267 263 264 269 263 261 262 261 261 267 271 273 271 270 272 270 269 269 268 269 269 270 270 270 270 271
285 279 288 297 296 295 291 285 277 278 278 276 279 283 284 290 281 281 282 282 282 283 282 281 280 280 278 278 279 279 278 275 276 273 276 273 278 276 278 278 279 280 275 271 270 273 274 272 271 267 271 273 275 277 277 277 276 275 272 272 272 268 266 265 261 265 268 268 267 266 263 265 273 272 273 272 271 270 269 269 269 269 270 270 270 271 271 271
284 287 295 296 295 293 289 278 278 280 276 281 284 282 282 282 280 281 283 283 284 283 282 281 281 280 280 281 280 278 279 273 277 275 276 276 276 276 277 278 278 278 277 270 273 275 281 264 265 272 274 276 277 276 276 274 276 274 273 274 271 269 267 268 268 268 265 266 264 265 262 266 271 273 274 274 270 271 270 270 269 270 270 270 270 271 271 271
283 288 292 297 295 293 287 278 277 275 276 283 281 282 283 283 283 282 282 282 281 281 281 281 281 282 281 281 279 280 280 271 277 275 275 276 276 279 278 278 279 278 274 272 270 275 267 269 270 265 266 270 273 274 275 275 275 273 271 272 272 270 268 266 265 260 262 264 266 263 258 263 273 275 274 273 270 270 269 270 271 269 270 270 270 271 271 271
286 284 285 290 296 292 283 278 280 275 278 279 279 279 281 281 283 284 283 281 282 280 280 280 281 282 281 281 280 280 280 278 275 276 274 273 274 280 278 278 279 278 278 278 282 277 272 272 265 261 261 260 261 262 264 267 270 274 273 272 271 266 265 264 261 259 259 264 265 261 261 268 272 273 272 271 270 269 270 270 271 271 270 270 270 271 271 271
285 283 283 286 289 288 283 280 280 278 276 273 276 280 279 279 283 282 283 283 282 282 280 283 281 281 278 279 278 277 278 279 277 272 270 272 273 277 279 277 279 280 282 285 280 275 264 269 269 266 262 265 268 270 274 275 272 267 270 270 268 264 262 264 262 262 262 263 260 263 265 266 267 269 269 269 269 268 269 269 269 269 270 270 271 271 271 271
283 282 280 281 282 285 279 281 281 279 278 278 276 277 276 280 280 282 284 281 283 282 282 281 281 280 279 278 277 278 277 277 276 273 271 270 270 275 277 279 278 281 286 283 280 269 263 265 266 270 270 271 273 272 273 274 270 271 269 268 266 264 262 261 260 261 266 262 259 267 267 264 265 268 269 268 269 269 269 269 269 270 270 270 270 271 273 271
284 283 283 285 285 281 276 281 279 280 280 279 278 280 277 277 278 276 282 282 283 281 282 281 280 279 279 280 279 271 275 274 273 271 271 271 272 274 277 279 277 279 279 276 272 268 263 265 265 266 268 270 272 272 273 272 272 272 270 268 264 264 262 260 259 264 266 261 261 266 267 264 266 268 268 269 269 269 269 269 270 270 270 271 270 270 270 270
283 282 283 284 280 278 279 283 281 282 282 278 279 280 276 276 277 280 280 281 280 281 281 276 278 279 279 279 278 273 274 268 268 269 268 269 270 271 269 272 279 275 275 274 274 264 267 262 262 265 269 270 271 272 272 270 271 270 268 268 267 265 264 263 264 267 266 265 267 267 266 266 268 268 269 269 270 270 270 270 271 270 270 270 270 270 269 270
283 281 282 280 280 278 279 281 281 281 282 281 277 281 279 278 279 281 281 281 276 280 280 279 278 279 279 279 277 273 276 276 275 270 270 272 269 270 269 270 270 273 274 273 272 271 270 267 271 263 263 267 270 270 269 271 270 268 269 267 266 266 266 267 267 268 268 267 267 266 265 264 269 270 270 271 271 271 270 269 269 270 270 270 270 269 269 269
284 279 286 287 279 279 278 277 280 278 275 279 277 282 282 280 281 280 280 282 282 280 280 279 280 279 279 278 278 280 280 278 278 277 277 276 272 274 272 271 277 270 269 268 266 267 267 267 265 263 264 267 270 271 270 271 269 266 265 266 265 264 262 266 264 268 267 264 266 265 263 263 268 270 270 270 269 269 268 269 269 269 270 270 269 269 269 269
284 285 283 284 280 281 281 277 277 277 276 280 282 281 281 282 281 281 280 281 279 282 281 281 280 281 277 277 277 278 279 278 279 279 280 278 279 278 278 277 273 272 266 268 267 266 264 263 263 261 264 266 271 271 268 268 268 261 260 264 266 268 269 269 270 270 269 269 264 261 262 268 269 270 268 268 269 269 269 269 269 270 270 270 269 269 269 269
Wind_Speed
10 10 11 11 12 12 11 11 10 10 9 10 10 10 9 8 8 7 7 7 8 9 10 9 7 7 6 6 6 7 6 4 5 8 12 1 5 9 11 10 8 7 7 3 7 9 6 6 7 10 7 2 2 1 1 1 1 2 1 4 0 3 2 2 2 4 1 2 2 2 1 8 3 2 4 4 10 6 4 8 4 9 7 5 4 4 5 5
10 11 11 12 12 12 11 11 10 10 10 9 9 9 8 8 8 8 7 7 8 9 9 10 9 6 5 5 5 5 4 3 5 6 5 3 7 7 8 7 6 4 4 3 4 3 4 6 4 6 4 0 1 1 1 1 1 1 2 2 4 4 1 2 2 2 2 1 3 2 1 3 2 7 3 4 2 3 6 3 3 6 5 6 7 7 8 7
11 11 12 12 12 12 12 11 10 10 10 9 9 9 8 8 8 8 8 7 8 8 7 8 9 7 5 4 5 3 0 2 5 8 7 10 13 13 11 8 5 0 1 2 1 1 2 1 1 3 3 1 3 1 2 2 1 0 2 1 2 5 1 1 2 1 1 4 3 1 1 1 0 1 1 2 4 1 5 5 2 4 5 5 5 7 6 8
11 12 12 12 12 12 11 11 10 10 10 10 9 9 9 8 9 9 9 8 8 7 7 7 8 7 6 6 5 1 4 3 4 4 5 12 16 15 13 11 5 2 1 1 2 1 1 1 0 1 1 1 4 2 0 2 2 1 3 1 1 3 2 2 1 1 1 2 2 3 1 1 1 1 2 6 5 1 2 4 6 7 6 5 5 6 6 7
11 12 12 12 12 12 11 11 11 11 10 10 10 9 9 9 10 11 9 9 8 7 6 6 7 7 6 5 4 2 4 3 3 3 7 13 14 15 12 10 5 0 1 1 2 0 1 1 1 2 2 2 3 2 1 2 1 2 0 1 3 2 0 2 3 4 1 2 5 1 1 1 1 2 3 7 3 6 6 3 5 8 7 7 7 5 5 7
11 11 12 12 12 12 12 12 12 12 11 10 10 10 9 9 9 10 10 9 8 7 6 5 6 6 4 4 4 5 3 2 3 6 11 13 14 12 12 8 8 3 4 8 4 2 8 6 3 2 2 2 2 2 2 0 1 1 1 0 1 3 1 1 1 2 2 1 4 2 2 2 1 1 1 2 3 2 3 7 8 7 7 7 6 6 6 7
11 11 11 12 12 12 12 12 12 12 12 11 11 10 10 9 9 9 9 8 8 6 6 5 5 6 3 1 3 12 9 1 1 9 11 12 13 11 10 7 12 8 7 8 9 4 4 8 7 2 1 3 1 2 1 3 4 4 2 0 0 1 1 4 2 2 2 7 1 2 3 1 2 1 1 2 1 4 6 8 8 8 7 7 8 6 7 6
11 11 12 12 12 13 13 13 13 13 12 11 10 10 9 9 9 8 8 7 6 7 6 5 5 5 2 1 2 5 8 4 9 8 11 12 11 10 9 3 10 4 8 7 6 4 1 7 4 0 4 2 2 0 4 1 6 2 1 1 1 1 0 2 2 1 1 1 3 6 4 3 5 2 3 3 5 5 7 8 8 8 9 8 9 7 7 7
11 11 12 12 12 13 13 13 13 13 12 11 10 9 9 9 8 8 6 6 6 6 6 4 4 2 4 5 4 10 6 4 6 10 9 9 10 8 8 6 6 6 1 3 4 4 7 3 2 1 1 0 0 2 5 1 2 0 1 1 0 1 1 1 1 1 2 2 4 4 3 1 5 3 2 8 7 7 8 9 9 9 9 8 8 8 8 7
12 12 12 12 12 13 13 13 12 12 11 10 10 9 8 8 8 7 5 4 4 4 5 8 9 2 6 3 4 13 4 7 7 6 9 7 8 8 9 4 5 5 5 5 6 9 7 0 0 3 3 1 0 1 1 3 1 1 1 0 0 2 1 1 1 3 2 2 4 4 4 1 2 1 5 4 9 7 8 9 7 10 9 8 7 7 6 8
12 12 12 12 12 12 13 12 11 10 10 10 9 8 7 8 8 7 7 3 1 1 4 7 7 6 7 3 12 6 2 5 1 6 8 6 8 8 5 6 3 4 5 5 6 1 1 1 1 1 2 0 1 2 2 0 1 1 1 0 2 8 0 1 2 7 1 3 6 4 2 0 1 1 7 8 9 9 11 9 7 8 8 8 8 7 5 7
12 11 12 12 12 13 13 12 10 9 8 9 8 7 7 7 8 8 7 7 2 3 3 4 3 5 4 7 11 3 5 3 4 5 5 6 7 4 6 0 1 2 3 5 4 2 1 1 5 4 1 0 1 0 1 1 0 1 2 1 4 9 1 2 3 4 2 3 4 4 2 0 1 6 7 7 9 9 10 9 7 8 8 7 7 6 6 5
11 12 12 13 13 13 12 11 10 9 9 8 7 7 7 7 7 6 6 8 5 4 2 3 2 5 2 10 1 5 3 3 3 8 8 5 5 1 0 1 3 0 2 1 2 2 2 3 6 10 1 2 1 1 0 2 3 1 6 1 5 8 2 3 5 5 1 2 4 3 10 4 8 11 4 6 10 8 8 8 7 6 7 6 6 6 5 5
11 12 13 13 13 12 12 10 9 9 8 7 7 7 7 7 6 6 4 4 6 4 5 4 3 7 5 3 3 4 4 1 4 6 7 8 9 8 6 7 4 3 1 2 1 0 3 4 9 6 1 4 0 2 2 3 6 4 5 6 2 6 3 5 5 5 4 1 3 2 7 15 4 7 2 5 10 12 10 7 7 8 7 7 6 6 5 4
12 12 13 12 12 12 11 10 8 8 7 8 8 8 7 8 8 5 3 3 5 6 2 3 6 2 6 0 4 8 3 1 8 8 5 9 5 6 8 10 9 6 1 1 2 1 2 4 7 8 4 4 3 2 4 4 6 4 6 5 4 1 7 12 7 3 1 3 3 1 8 9 6 7 3 5 7 8 8 6 8 8 7 7 6 6 5 3
12 12 12 12 12 11 9 9 9 9 9 9 9 9 8 8 10 7 4 1 6 6 2 4 6 8 7 4 1 6 4 10 11 7 6 4 2 1 5 7 3 3 5 3 4 4 6 8 8 1 3 4 10 5 5 6 7 6 5 4 6 2 6 10 2 5 2 5 2 2 7 10 5 2 3 6 8 6 6 6 7 9 9 7 6 5 4 4
12 12 12 11 10 9 9 9 10 9 9 9 11 8 7 8 12 4 5 5 5 3 8 2 1 2 5 3 2 6 5 4 5 5 10 6 1 1 5 5 3 8 5 4 10 6 7 6 3 4 5 7 2 2 2 6 5 3 2 2 2 4 5 6 9 4 5 6 7 0 2 7 13 4 6 5 5 6 7 7 8 8 7 7 6 5 5 7
11 11 11 11 9 9 10 9 9 10 10 10 6 5 5 10 9 12 11 6 2 5 3 4 2 3 1 6 4 7 6 5 9 9 6 5 3 5 3 3 2 4 5 3 6 8 5 4 6 3 1 6 7 10 9 2 2 5 6 6 7 1 4 8 5 5 10 1 2 7 4 8 11 12 3 9 4 8 8 8 9 10 9 7 5 5 6 7
11 11 10 9 10 9 10 9 10 10 11 10 5 3 2 3 4 7 9 7 7 8 8 8 8 5 1 6 7 6 6 5 5 7 12 11 4 1 2 2 4 4 1 5 2 6 5 3 5 7 11 9 8 4 4 1 1 4 5 5 5 5 5 7 7 5 5 11 8 3 8 13 15 14 8 2 8 11 10 11 10 9 7 6 5 6 6 5
11 11 10 10 9 10 10 10 10 10 9 5 4 1 3 3 8 5 8 8 9 8 5 2 0 1 1 5 6 7 4 7 9 14 16 9 4 6 8 4 4 7 5 2 5 4 1 10 5 1 4 6 5 2 2 3 3 2 1 1 7 6 5 6 7 5 6 8 4 8 11 5 9 10 11 8 12 13 13 12 9 8 9 9 8 6 5 5
11 11 9 8 9 10 10 10 10 10 3 4 3 5 1 2 4 2 1 1 1 2 5 2 2 0 1 3 3 6 5 5 3 11 10 7 1 4 7 6 8 8 5 3 1 3 6 10 7 4 4 4 3 0 2 2 2 2 3 2 7 5 10 6 10 3 3 6 15 14 6 5 7 9 9 10 15 12 12 11 10 9 8 8 8 7 6 3
11 10 10 8 9 9 9 10 10 5 6 5 7 6 1 1 0 1 4 4 3 2 4 1 2 4 4 1 3 0 3 1 12 16 10 9 8 7 5 8 5 6 6 5 3 8 8 5 4 5 3 1 4 4 2 4 2 3 3 3 3 8 8 11 9 1 3 7 14 10 4 6 8 8 11 13 13 10 10 11 9 9 9 7 8 6 5 5
10 9 9 8 9 8 8 8 7 6 3 6 4 4 2 0 2 1 4 5 3 1 3 3 5 4 4 4 2 6 8 10 3 11 12 7 7 7 2 7 7 3 6 7 6 4 6 2 4 2 3 6 4 6 6 6 3 3 6 4 5 5 6 16 13 0 4 1 7 10 8 4 7 9 12 10 12 10 9 10 11 9 8 7 5 4 4 4
10 9 8 9 8 8 8 8 2 7 5 5 6 2 1 1 2 2 1 1 2 1 1 0 1 0 3 4 3 3 3 4 2 14 9 6 5 2 4 3 4 6 6 4 5 7 2 2 0 4 7 6 3 3 4 5 6 5 1 3 4 7 8 4 12 13 8 4 2 4 6 3 1 8 8 6 7 10 7 9 8 7 5 3 2 3 4 6
10 9 9 8 9 8 8 4 7 1 2 3 2 1 1 1 1 1 2 1 4 2 1 1 3 2 3 1 3 0 0 1 5 1 5 7 8 4 1 0 3 4 3 0 2 5 3 1 0 2 5 7 5 6 2 1 5 5 3 2 5 6 12 14 12 9 8 7 1 5 6 3 1 5 6 4 5 8 4 9 8 6 6 7 10 8 6 6
11 11 10 9 10 10 2 5 1 1 2 1 1 0 1 0 0 0 6 4 1 4 4 3 0 4 1 7 6 1 1 4 2 4 1 8 4 2 2 5 1 5 3 1 1 1 1 2 5 1 3 4 5 4 1 1 1 3 5 1 4 7 9 12 15 6 6 2 6 3 3 6 3 3 4 2 6 6 4 7 5 5 6 8 8 8 8 9
12 12 12 11 11 7 4 0 0 2 0 0 0 1 1 1 0 2 1 4 4 1 2 3 2 3 3 3 5 1 5 6 6 8 13 13 3 2 6 7 4 1 1 1 4 2 3 5 5 5 5 5 6 7 3 1 1 4 3 2 6 9 12 14 11 1 7 2 3 2 1 3 4 2 3 3 5 4 4 5 6 6 8 9 10 9 9 10
13 14 13 12 8 7 3 3 1 0 1 1 0 1 1 0 2 2 5 3 2 2 3 4 1 3 6 6 10 7 4 5 4 5 6 7 5 5 9 4 2 3 4 4 5 4 1 5 3 4 4 5 3 4 6 1 2 6 5 3 6 7 9 13 8 6 4 1 5 5 4 3 3 1 3 1 3 4 5 5 6 7 7 8 9 10 9 11
14 14 15 11 7 10 6 3 2 1 0 1 0 1 1 2 4 5 4 3 1 2 3 1 2 3 8 6 9 3 2 4 4 4 7 5 15 3 5 3 1 1 0 3 2 3 2 1 2 2 2 2 4 6 4 3 3 5 4 3 3 6 4 11 5 4 3 1 5 1 2 1 10 5 6 2 4 3 3 3 6 6 7 7 9 8 9 10
13 15 15 7 3 4 4 3 3 1 1 0 1 1 2 3 2 2 2 3 1 2 1 3 4 5 4 6 4 8 7 5 1 4 5 3 14 11 1 1 4 3 2 4 3 5 4 5 5 3 0 0 3 6 2 3 4 5 3 7 8 5 4 4 0 1 2 0 6 4 1 3 7 2 5 2 3 2 1 2 2 5 5 6 7 7 9 10
12 13 13 9 4 1 0 1 1 1 0 1 1 3 3 8 3 5 3 1 1 2 3 4 2 4 7 8 7 6 2 3 6 5 6 7 14 8 6 2 6 4 5 6 3 11 7 1 1 1 1 2 1 6 2 1 2 3 3 3 12 5 2 2 2 4 1 7 3 1 4 7 8 4 3 4 5 6 5 5 5 7 7 8 9 8 8 9
10 11 10 8 0 0 0 2 0 1 2 1 2 4 3 2 8 7 2 5 1 4 2 4 2 2 5 1 5 6 4 5 2 4 4 4 7 12 11 9 6 7 5 8 9 8 3 2 2 5 2 6 4 4 5 4 5 8 4 7 10 9 7 10 8 11 6 9 6 4 9 8 4 4 9 6 7 4 3 3 3 5 6 6 8 9 9 10
9 10 5 5 2 2 0 0 1 1 2 2 5 4 3 7 2 2 1 4 0 1 3 2 3 5 4 2 5 5 1 5 4 4 1 2 7 5 5 9 6 3 4 3 4 6 7 4 3 6 3 2 4 9 10 8 5 7 5 2 6 5 5 9 7 3 5 6 3 3 3 6 5 1 10 11 7 6 4 3 2 6 7 9 11 10 11 9
8 6 2 2 1 0 0 2 1 1 1 3 3 5 8 9 1 1 0 1 1 2 2 1 4 3 3 4 2 2 5 1 3 3 4 2 6 5 6 5 5 6 1 4 5 4 6 8 3 3 2 4 2 2 5 6 8 5 3 1 2 2 3 11 2 8 11 13 8 1 3 4 4 2 12 12 9 7 3 5 6 5 5 5 6 7 12 17
8 5 1 1 2 0 1 1 2 1 4 6 11 6 7 1 1 0 1 2 2 2 0 1 2 3 3 3 2 1 1 2 2 2 7 4 5 2 5 4 6 2 1 2 1 0 2 6 8 2 4 1 7 5 1 2 6 2 1 4 6 6 3 8 7 4 8 11 10 0 4 5 4 1 6 6 5 8 9 9 8 11 13 14 14 15 15 14
4 2 1 2 3 1 2 2 2 1 4 8 11 9 5 1 0 1 0 1 1 2 7 3 4 5 2 4 1 4 4 1 4 2 2 4 0 4 2 1 3 3 2 2 1 3 4 5 1 12 3 1 6 5 3 2 3 4 4 4 5 5 5 3 5 4 3 2 9 3 4 4 1 3 6 2 4 9 12 13 12 12 11 12 14 13 12 12
3 3 2 3 3 0 2 2 3 6 9 10 10 3 1 0 0 2 2 0 1 0 2 4 4 3 4 4 2 7 5 2 1 4 3 1 1 3 3 3 1 3 1 2 4 3 1 13 11 1 6 3 1 3 2 1 0 3 3 5 8 2 4 3 6 4 2 4 8 2 10 7 4 7 2 10 15 13 11 9 8 6 11 13 10 10 11 12
1 1 0 3 5 1 2 1 2 6 7 11 7 6 0 1 0 0 1 1 0 1 3 3 1 5 1 1 5 3 7 4 8 4 0 3 1 1 1 3 3 3 3 2 2 3 1 9 5 2 4 8 9 4 6 1 1 2 1 2 6 6 8 4 1 10 9 8 9 10 11 9 5 6 8 11 12 12 9 7 10 15 11 10 10 11 11 11
2 2 2 4 5 2 2 3 8 8 9 12 0 5 1 0 1 0 3 4 0 1 3 0 0 2 1 1 2 1 2 4 3 3 3 3 3 1 2 2 2 2 4 1 0 2 1 2 7 1 3 7 6 5 8 6 5 1 3 7 1 1 5 9 4 7 5 13 11 15 11 9 0 1 4 8 9 8 7 9 11 10 10 9 10 11 13 12
2 2 3 1 6 2 2 1 8 11 10 8 2 2 1 1 0 1 1 0 0 2 0 1 0 1 3 0 0 2 2 3 2 3 2 2 0 1 3 3 2 8 5 3 1 0 2 1 6 5 5 6 6 2 4 5 3 6 7 3 5 2 4 5 1 2 5 9 8 12 15 1 4 3 1 6 6 9 14 11 8 9 10 11 11 13 12 12
1 4 1 2 6 0 4 15 15 8 7 0 2 3 0 0 0 0 1 1 0 1 1 1 0 1 1 3 2 0 2 2 2 1 0 1 3 4 0 1 2 4 4 2 6 3 1 2 5 10 9 2 5 4 2 3 0 5 5 3 5 7 10 8 10 1 1 2 10 9 15 10 5 5 3 5 11 14 10 10 10 11 12 12 13 12 12 13
2 2 4 5 6 3 7 10 4 1 6 4 2 0 1 1 2 1 0 0 1 0 2 2 0 1 0 1 1 1 1 2 1 1 1 1 0 1 1 3 3 1 1 1 3 3 1 3 2 8 6 11 10 8 0 1 2 1 4 6 1 1 1 5 10 9 8 9 8 9 14 8 5 4 3 6 10 10 9 10 13 12 13 14 14 13 13 12
4 2 1 5 4 5 13 7 2 6 4 1 1 1 1 1 2 2 1 1 0 0 1 2 1 1 1 0 0 0 0 1 0 0 0 0 2 4 5 5 3 2 2 3 2 2 3 2 6 11 8 6 8 4 1 3 4 7 1 2 4 8 5 7 8 7 9 14 11 10 10 8 1 5 12 15 5 7 7 8 13 13 12 14 14 16 16 15
2 3 3 3 5 5 9 4 3 2 2 1 3 1 1 1 1 2 1 1 1 2 1 0 2 1 0 0 0 1 1 1 1 1 0 1 0 2 4 3 3 1 3 1 1 4 3 2 1 8 9 13 14 7 5 1 4 3 7 4 3 6 8 6 4 2 3 5 10 8 17 14 5 11 16 15 10 11 12 14 14 16 15 15 15 14 14 15
3 1 1 7 11 10 4 3 9 6 1 3 1 3 1 2 2 1 0 1 0 1 1 1 0 1 0 0 0 0 1 3 2 1 1 1 1 1 6 2 2 0 2 4 3 0 0 3 3 3 8 14 17 17 16 16 12 8 3 7 7 4 7 8 5 2 3 1 8 8 15 14 15 18 21 17 13 13 13 13 11 11 14 15 16 15 15 14
1 3 6 8 9 8 6 2 6 8 6 2 4 0 1 1 1 2 2 0 0 0 1 0 1 1 2 2 3 3 3 2 1 1 1 1 2 1 3 4 2 1 3 4 1 2 1 1 1 2 1 8 11 12 12 11 12 10 15 9 11 1 2 1 3 5 9 11 9 11 14 20 23 23 20 16 15 18 18 15 14 16 15 14 15 15 15 15
2 5 1 1 3 9 5 5 3 2 3 3 3 0 4 0 1 1 3 1 0 1 1 3 1 2 2 3 1 1 1 3 2 1 0 3 2 2 4 1 3 2 2 1 1 2 2 2 3 4 6 10 13 15 16 11 13 15 13 11 5 3 4 4 4 9 9 11 15 10 21 22 24 22 16 16 17 18 15 17 18 16 16 15 16 16 18 17
4 1 2 0 4 0 4 4 3 5 3 3 1 1 1 0 3 1 2 1 0 0 1 0 6 2 0 0 1 0 4 4 1 1 2 2 1 3 1 1 2 5 2 1 1 2 1 1 6 3 12 8 13 14 14 9 6 11 12 6 2 2 5 5 6 8 10 6 18 26 24 24 24 19 13 15 17 17 19 20 18 17 17 17 16 17 18 16
4 3 1 1 3 1 1 2 3 7 7 3 2 2 2 2 3 0 0 3 2 2 3 1 4 4 3 2 1 0 0 4 3 2 3 2 1 2 2 2 0 5 3 2 2 1 0 3 5 4 10 13 14 11 9 8 12 13 7 2 4 6 5 4 7 9 9 13 19 22 24 24 19 13 15 16 15 18 18 15 16 19 20 18 18 18 17 16
2 3 1 5 7 4 0 1 2 4 6 3 3 1 1 1 1 0 1 2 1 1 1 2 3 4 2 0 1 1 1 3 4 3 1 3 3 1 2 4 2 3 3 1 0 1 3 6 6 3 3 9 11 6 5 10 12 11 11 3 1 2 7 11 10 12 13 14 17 21 21 19 8 9 13 14 14 16 18 20 20 19 19 20 21 19 16 16
2 1 5 10 5 3 2 3 2 3 3 6 5 0 2 0 1 2 1 0 1 0 1 1 1 3 0 1 2 0 3 4 4 7 3 3 1 3 1 2 1 1 3 3 2 3 5 6 1 1 8 8 4 13 15 17 16 9 2 6 9 5 5 8 7 12 15 21 22 20 17 13 10 13 15 14 16 18 20 21 21 20 21 21 18 18 18 15
3 1 5 8 6 2 3 1 2 3 3 1 1 0 1 0 0 1 3 1 2 1 0 0 1 0 1 2 1 2 3 3 4 2 2 3 1 0 0 1 2 1 1 0 1 2 0 1 5 4 8 9 12 11 15 17 9 5 4 3 4 11 10 11 11 13 14 17 18 16 14 12 18 18 19 18 18 19 18 17 20 23 22 19 18 18 20 21
Wind_Direction
354 354 349 347 347 344 344 345 346 345 338 340 335 337 334 330 322 325 329 326 321 324 327 326 334 333 328 333 333 334 359 85 32 30 38 250 248 274 294 300 300 302 313 8 7 31 344 356 2 346 7 32 294 9 271 37 80 59 61 114 268 203 144 222 194 186 199 135 262 298 140 119 157 203 170 87 41 81 65 72 54 49 57 93 111 95 74 44
351 350 348 347 345 343 343 344 341 339 338 333 332 327 331 323 322 327 329 326 323 321 322 322 320 331 343 327 317 328 61 60 52 43 48 291 293 296 303 303 288 295 328 32 37 48 24 335 346 6 25 337 318 250 20 250 76 103 115 91 224 193 234 154 190 217 122 220 200 241 299 174 189 148 210 76 121 84 76 45 57 79 64 63 62 66 59 48
349 349 348 346 343 342 342 338 335 335 334 327 326 324 325 327 327 329 328 323 316 313 309 308 312 319 327 313 281 316 342 9 26 17 330 338 335 341 356 337 293 192 66 314 230 167 201 234 310 12 345 299 354 243 34 273 34 241 133 269 251 210 223 230 188 206 201 125 161 172 279 59 26 164 14 159 154 49 136 142 55 92 108 92 77 64 63 55
347 349 347 344 341 339 335 332 331 330 327 323 319 325 326 334 329 329 326 321 317 311 301 301 301 316 323 313 329 311 74 59 28 301 298 331 337 335 352 351 327 143 117 179 184 196 170 98 84 111 351 59 299 40 62 288 66 289 72 171 226 204 110 258 186 227 226 151 167 190 65 66 3 122 109 145 101 268 257 207 162 163 147 119 100 88 71 66
346 347 345 341 337 333 331 329 327 326 321 321 322 327 334 331 331 322 326 321 316 314 304 297 297 307 313 323 323 80 76 57 300 295 291 331 330 335 348 355 1 142 222 254 111 80 127 86 99 47 73 283 355 17 343 334 120 89 299 207 159 93 275 244 233 236 125 66 106 110 117 226 189 39 101 149 175 224 199 195 150 140 140 128 110 98 85 76
346 345 343 337 332 329 329 326 323 323 320 321 328 331 331 327 323 320 318 315 311 313 309 293 297 305 307 332 45 69 90 73 302 311 315 322 330 332 346 352 7 69 55 32 41 1 54 359 64 32 6 57 341 81 298 320 347 287 318 341 214 198 168 234 211 254 168 104 119 148 219 83 71 146 178 149 203 227 184 140 137 138 135 126 112 106 88 82
345 343 337 333 330 328 325 326 323 320 323 326 328 328 324 323 311 310 309 310 311 309 306 307 299 306 315 38 54 70 82 190 288 279 321 324 325 340 341 5 16 38 40 38 21 59 31 37 59 356 68 35 338 66 338 307 15 105 187 261 328 172 159 173 206 146 124 118 202 193 102 149 147 264 183 97 236 163 139 134 133 129 121 114 100 101 106 100
340 336 334 331 329 327 324 323 323 323 324 324 323 323 319 313 308 301 303 306 314 305 313 309 308 333 334 62 54 35 50 329 295 286 315 331 332 335 336 35 21 28 45 56 32 35 68 43 24 331 61 106 276 128 308 18 14 75 13 288 267 133 235 225 203 160 166 121 104 110 147 244 173 191 108 189 168 161 146 132 126 122 111 105 109 106 101 93
335 336 335 331 328 324 324 321 323 325 321 321 321 316 312 303 303 298 294 307 305 291 310 325 343 13 102 84 113 60 355 263 276 293 323 334 327 338 18 15 355 39 74 48 55 82 89 335 29 118 247 70 12 74 331 49 333 21 269 303 339 273 239 280 259 256 228 118 133 114 237 325 209 174 213 186 187 169 144 129 132 122 118 120 120 119 108 102
338 338 334 330 326 325 321 321 321 321 318 321 317 308 304 298 298 300 279 280 276 293 322 349 8 23 58 81 57 61 278 268 288 311 327 329 331 3 14 29 20 29 29 350 29 38 53 316 173 241 153 97 34 11 259 68 250 169 301 107 93 316 5 350 232 271 243 211 183 180 208 239 224 41 282 192 190 158 139 138 140 129 130 128 122 116 113 107
339 337 332 328 326 323 322 322 319 316 317 316 312 307 299 307 308 302 295 250 225 149 11 1 359 44 46 57 75 79 255 22 318 338 334 341 357 19 341 338 354 33 29 12 45 67 158 322 230 137 55 180 55 325 62 241 197 209 219 78 355 334 81 320 307 276 324 276 179 184 190 223 259 82 232 183 192 165 150 149 146 133 132 130 122 112 109 104
339 334 329 328 327 324 323 320 314 306 312 307 307 310 316 318 318 315 316 316 58 73 79 6 14 94 78 71 69 76 243 243 340 332 341 4 344 287 276 305 30 78 76 18 4 10 36 354 70 65 240 264 317 43 25 240 30 310 32 360 309 358 29 334 354 288 152 268 143 138 102 10 219 233 235 185 161 167 154 156 149 135 131 123 115 109 102 105
334 333 332 332 328 323 319 315 310 306 305 304 302 325 323 314 309 319 328 339 348 31 59 48 53 83 92 45 23 247 280 298 10 353 348 20 330 238 298 85 359 259 116 81 340 355 29 76 94 70 323 104 189 74 221 61 328 42 29 30 7 360 358 321 5 6 7 262 110 117 306 211 241 245 254 178 154 156 157 154 147 132 123 117 112 107 97 94
336 336 335 329 320 318 316 310 302 302 307 310 323 325 320 317 317 311 320 308 306 349 19 13 91 65 78 100 257 246 271 242 16 7 5 336 14 316 346 346 5 44 41 44 311 205 70 50 91 119 89 68 335 327 47 348 16 42 293 61 70 5 280 306 9 296 359 335 61 63 288 294 276 284 218 176 162 162 173 156 137 127 120 115 109 106 106 108
339 335 329 320 320 319 315 308 308 316 324 332 329 328 335 348 341 326 317 341 340 331 78 92 52 75 43 316 269 284 271 75 5 355 346 6 346 336 341 338 342 1 312 96 336 83 110 64 64 36 346 338 35 43 0 34 7 6 45 317 335 97 280 309 305 32 350 339 7 15 282 260 304 296 179 182 176 164 165 146 125 123 119 114 109 107 102 106
335 328 318 320 314 309 306 316 330 332 333 332 326 320 318 344 3 7 37 123 299 356 114 53 356 102 111 36 290 1 40 11 344 312 335 19 355 277 297 299 305 5 36 14 26 61 37 69 76 156 336 338 50 81 36 27 353 4 66 282 292 313 276 343 289 11 104 349 360 25 273 309 323 8 197 211 182 169 131 109 111 118 117 110 111 104 108 87
327 321 318 316 311 306 324 330 333 333 331 330 329 317 326 355 359 10 55 51 4 326 70 19 18 88 76 258 341 22 347 303 301 335 343 343 138 298 331 14 16 345 11 37 25 43 3 55 323 25 39 84 329 79 53 21 330 323 42 312 241 285 320 313 310 333 14 50 319 52 240 276 282 303 220 221 194 129 97 101 104 107 104 106 104 110 100 70
322 317 317 311 307 321 331 333 333 335 330 322 312 298 315 333 358 49 357 16 357 69 91 113 111 42 335 8 20 325 305 303 338 311 319 348 92 11 33 12 328 20 38 11 357 40 336 48 26 160 24 26 23 30 71 311 274 300 329 334 318 317 249 263 319 278 6 72 308 310 274 281 295 298 225 220 112 90 100 104 103 101 99 99 103 93 73 68
318 315 311 313 315 321 333 335 340 341 330 311 305 243 283 5 16 59 41 344 38 355 25 340 20 67 344 305 282 283 311 285 273 8 349 353 340 51 31 51 43 43 341 54 327 46 351 62 34 37 17 346 358 89 134 218 202 259 263 247 261 290 302 299 270 308 31 326 329 308 311 318 310 313 329 116 99 100 99 93 89 91 93 84 73 74 65 66
315 314 314 318 324 333 339 342 341 339 340 15 6 25 15 18 3 357 348 20 63 100 144 308 167 240 345 345 340 294 276 25 24 354 359 1 359 355 36 49 360 60 60 35 322 18 52 67 58 59 283 307 300 205 167 227 168 256 266 234 267 274 277 280 273 278 346 345 275 306 313 313 301 352 347 86 90 88 89 89 88 83 75 64 57 51 52 48
315 311 309 305 333 339 341 338 339 344 33 93 71 63 102 162 80 56 291 19 182 84 84 58 94 111 262 262 298 355 16 329 57 3 1 306 97 59 340 18 13 36 353 299 137 312 64 59 1 297 258 263 304 164 59 60 100 48 320 2 321 314 308 291 288 340 347 52 300 310 338 317 12 18 30 69 78 77 92 87 78 79 75 66 51 42 33 25
312 311 315 312 337 343 338 340 339 16 76 80 73 95 139 188 155 167 118 53 24 39 53 24 352 25 328 213 264 88 112 328 360 3 349 31 345 72 322 72 47 40 326 356 19 15 41 67 316 300 282 85 60 40 45 70 2 19 29 290 2 311 287 275 250 7 39 354 299 316 18 348 40 38 52 72 81 77 70 81 81 77 70 55 46 33 31 29
325 315 321 324 339 340 339 333 342 31 37 37 60 83 116 216 349 274 94 123 88 311 52 15 19 11 346 320 341 54 42 37 299 349 353 2 1 65 24 46 22 354 7 24 78 26 30 325 321 328 55 50 9 25 22 6 42 45 353 23 308 277 18 327 313 176 334 206 269 320 326 96 83 61 66 58 80 88 84 82 79 75 73 59 46 35 38 25
343 345 341 342 339 339 339 332 351 37 31 110 96 111 192 69 35 123 63 89 138 331 71 221 125 317 6 15 351 34 60 11 35 349 349 23 25 294 66 56 40 39 5 9 85 100 149 259 85 58 49 61 25 352 49 35 350 315 198 262 302 319 310 225 287 319 315 288 233 297 329 68 50 95 76 62 76 79 69 80 72 68 76 82 76 40 50 34
358 354 351 340 333 337 321 16 43 17 152 45 46 247 311 48 93 76 96 19 19 1 279 6 99 24 310 289 357 74 287 71 47 296 332 37 342 34 355 163 92 7 338 197 61 55 347 288 112 36 31 32 44 14 27 80 340 325 253 221 289 289 310 306 300 342 340 334 314 23 4 341 21 91 107 115 70 68 64 68 62 53 40 30 22 19 20 33
4 5 352 343 332 334 303 61 325 145 74 73 186 180 335 15 115 129 92 76 8 267 358 14 360 354 108 339 0 308 63 38 44 22 21 346 215 88 25 15 59 5 340 23 306 175 189 334 66 61 74 14 31 23 269 77 333 9 293 192 282 297 296 300 302 15 310 332 298 24 127 264 158 108 117 107 90 82 56 70 62 46 32 25 20 10 13 19
8 6 2 347 335 1 62 257 192 131 46 305 258 278 323 20 172 112 37 359 33 298 24 260 53 334 50 318 310 52 46 303 329 5 16 7 9 328 93 339 4 335 168 219 44 306 354 343 19 34 46 38 26 3 317 49 27 298 252 12 319 319 314 300 301 221 230 250 282 13 142 214 288 127 153 147 93 84 65 59 47 35 23 21 13 9 14 11
9 7 2 355 340 46 169 130 44 73 171 184 130 345 351 301 96 45 77 66 337 325 18 323 34 326 62 313 17 75 154 291 29 344 24 327 34 356 79 34 47 254 289 68 16 263 78 334 14 348 34 31 9 288 289 209 241 264 286 347 302 292 305 294 297 278 231 262 291 335 320 347 279 164 207 201 71 46 40 49 27 12 22 12 8 8 8 4
7 5 4 359 63 63 66 109 138 170 216 223 81 46 6 71 86 108 125 101 261 63 204 78 259 30 338 1 36 19 348 7 69 316 327 3 17 194 43 15 102 252 317 70 23 297 318 127 262 124 89 338 271 287 263 184 333 282 278 268 248 302 283 274 284 278 310 135 278 294 304 32 290 155 202 163 100 49 42 49 19 6 11 3 2 358 359 354
4 2 359 10 114 16 1 38 54 198 189 43 43 77 62 56 35 33 22 41 324 345 20 273 59 301 18 24 339 9 29 345 85 311 34 84 346 29 72 116 45 30 348 359 62 228 285 295 165 87 261 215 286 280 234 203 227 288 13 348 320 298 263 300 80 360 46 43 251 194 161 114 295 162 208 135 103 117 139 357 17 1 8 7 357 356 349 347
4 1 2 13 83 191 46 18 306 217 153 52 68 70 76 42 104 102 65 246 46 287 8 21 348 13 31 38 358 342 41 344 350 34 358 2 11 30 358 13 22 43 35 12 337 329 350 352 81 272 320 305 165 314 306 198 311 33 1 339 326 316 302 15 338 36 44 290 257 202 356 340 301 291 146 122 136 112 83 33 360 351 4 355 348 348 343 339
353 0 8 39 251 56 110 209 211 100 79 99 71 58 70 284 12 65 162 326 79 312 65 297 329 36 7 319 52 346 350 334 353 36 38 13 33 31 8 46 344 5 355 15 335 350 358 96 278 319 258 50 334 316 292 330 359 20 357 8 13 321 359 331 360 339 313 279 278 336 5 337 216 225 144 158 156 152 131 115 18 355 353 348 345 348 342 338
347 349 12 38 20 45 354 147 81 108 80 53 71 49 53 92 57 294 307 326 141 358 298 142 267 4 299 40 350 329 286 46 317 27 65 358 66 28 34 55 346 92 312 336 323 10 280 289 354 320 9 34 33 1 332 355 332 2 7 20 39 343 343 300 298 224 280 275 194 346 335 274 259 285 151 146 162 156 129 56 63 12 5 353 347 348 339 329
349 359 55 342 80 320 13 100 99 86 60 41 69 35 47 57 180 214 321 277 287 351 32 32 319 349 50 79 319 338 11 273 48 346 41 357 47 24 338 4 40 360 63 322 37 351 1 350 310 29 345 346 11 305 283 262 297 273 191 116 159 5 308 303 239 285 281 287 305 26 358 225 294 254 169 151 149 150 84 53 35 25 12 344 325 327 345 358
352 52 86 354 16 331 120 88 83 73 81 66 53 81 94 206 226 227 304 306 307 307 266 326 335 36 340 23 320 350 111 309 50 64 20 53 359 28 351 330 346 46 221 46 291 69 241 231 262 142 250 273 357 338 184 329 297 265 190 99 46 297 157 254 242 219 294 301 312 265 214 222 271 27 148 178 31 36 27 23 14 7 2 356 354 360 357 348
22 335 59 347 30 310 111 102 85 72 85 62 75 45 75 175 93 121 60 185 308 12 312 358 60 42 307 316 306 35 304 52 321 77 359 70 39 29 308 314 9 352 37 60 251 13 344 282 262 323 102 180 3 323 312 112 11 289 39 310 256 261 176 276 307 255 306 282 260 174 320 326 129 100 99 151 354 4 14 12 9 2 352 351 359 354 345 336
16 339 33 331 7 32 139 104 91 78 72 89 88 73 191 304 192 171 312 58 265 211 16 70 331 55 344 315 285 347 317 35 345 56 348 146 359 21 339 310 193 31 57 141 322 181 127 279 300 214 316 300 14 304 247 321 200 49 8 290 291 135 148 123 269 314 235 245 281 294 291 292 340 284 330 4 358 351 356 359 355 335 358 1 345 341 334 331
19 46 174 22 326 50 102 107 76 51 75 78 66 131 220 91 248 187 199 26 42 16 77 76 285 77 306 46 314 343 316 70 320 34 213 10 280 103 36 331 307 86 336 299 131 288 112 311 299 267 249 281 335 28 342 331 39 241 194 234 21 321 340 309 46 306 311 281 289 288 291 278 214 268 5 348 343 335 332 334 347 358 353 341 333 325 327 327
56 78 17 314 340 132 135 95 71 62 70 66 47 87 295 160 252 138 222 148 161 111 82 280 252 329 109 31 263 314 347 25 317 15 45 350 29 31 94 166 300 344 348 35 52 298 344 256 301 303 47 308 324 47 326 312 330 347 336 9 337 189 291 324 268 274 295 292 306 292 299 287 348 107 332 321 318 304 318 353 357 341 333 326 325 323 326 325
32 34 340 308 343 81 147 86 68 47 58 95 177 87 196 96 261 284 250 205 299 84 58 83 248 318 357 232 112 349 310 40 21 298 90 315 260 50 40 358 283 316 353 348 106 160 293 178 269 273 331 0 359 337 285 326 326 333 9 328 349 314 235 236 269 208 260 282 285 305 302 22 146 125 176 309 301 332 355 348 338 330 325 321 317 322 319 314
51 104 269 337 3 217 35 41 45 35 84 170 88 134 24 176 213 316 336 244 325 305 160 163 150 102 254 9 345 281 338 18 9 34 113 316 55 333 67 314 17 313 337 8 45 338 32 353 243 307 334 330 272 258 287 292 313 13 330 299 324 324 330 344 296 297 6 340 293 298 288 300 132 175 125 349 344 353 354 344 333 327 321 317 318 314 310 311
84 47 292 333 352 80 79 53 19 76 94 71 68 128 104 109 66 307 12 360 70 125 359 103 35 114 121 231 216 337 20 341 13 69 333 91 321 142 280 81 343 268 56 18 277 244 159 222 240 292 258 293 286 284 111 227 174 27 154 332 253 207 99 318 300 296 309 279 282 276 287 303 159 141 39 30 4 350 341 339 327 321 319 318 313 308 308 308
52 148 251 349 357 80 69 60 331 38 62 223 265 11 14 47 126 228 77 327 56 86 10 53 206 57 216 310 331 352 133 286 325 322 286 264 254 214 246 341 297 44 109 319 6 263 119 60 332 299 297 237 254 307 94 44 30 344 345 347 28 330 296 276 264 295 298 298 307 295 270 294 220 243 346 358 19 335 322 326 319 317 316 314 311 316 315 314
137 82 350 338 32 101 81 117 92 52 71 2 70 100 335 154 95 6 28 324 86 357 101 337 345 105 352 93 108 349 318 22 254 97 352 157 323 234 285 326 344 358 83 275 115 285 14 290 75 317 338 330 336 345 343 305 16 340 305 305 345 321 308 270 233 61 247 263 291 319 299 301 333 343 333 337 355 337 327 324 324 320 320 318 316 312 310 308
103 335 17 315 6 52 90 181 126 144 160 137 110 44 355 20 119 142 153 29 342 149 89 352 172 262 360 181 34 218 340 87 284 354 121 166 238 324 302 146 269 191 209 222 203 307 149 267 76 35 343 333 332 335 332 332 334 317 302 318 323 341 321 1 337 334 287 288 1 308 290 289 311 323 326 339 343 329 321 315 310 310 313 313 313 311 309 308
54 101 312 3 15 43 64 43 96 126 127 134 53 306 108 69 14 331 123 24 164 358 80 233 5 86 40 34 19 7 346 7 91 270 54 300 292 306 241 313 147 249 245 198 197 69 182 261 151 150 204 259 271 275 284 308 313 309 311 328 319 8 359 58 315 309 308 310 297 259 268 307 313 323 330 341 336 329 322 322 323 322 317 309 306 308 308 310
129 73 27 36 337 49 64 20 51 63 152 161 97 209 35 71 251 343 188 34 19 105 42 56 343 47 339 59 5 337 267 307 339 97 298 211 251 235 293 216 285 21 334 136 67 84 66 2 261 225 241 246 267 283 289 297 289 293 304 312 323 4 17 23 14 298 304 316 297 313 316 312 311 320 335 336 330 322 319 321 323 318 316 311 308 303 307 309
73 242 93 195 120 328 34 355 58 80 31 75 118 80 126 44 23 82 334 92 16 4 119 342 44 53 276 87 128 12 320 318 352 255 328 222 334 327 8 341 45 309 328 360 56 110 135 218 266 52 277 258 269 278 286 288 268 293 304 311 300 344 17 7 282 284 323 320 305 311 315 311 312 322 341 331 326 319 321 320 316 311 306 307 305 308 314 313
110 132 123 335 83 260 151 162 91 101 67 71 111 74 86 91 84 193 161 321 33 360 41 35 344 332 303 281 130 199 248 29 318 261 176 281 264 335 341 340 216 20 60 33 26 163 75 241 247 224 289 298 294 285 285 297 307 314 321 349 69 7 325 286 276 289 293 287 293 303 308 304 309 329 332 325 323 319 315 311 309 312 313 307 313 315 316 321
192 126 91 13 84 111 28 56 88 58 62 1 89 335 128 147 140 289 19 62 25 341 4 81 302 316 303 134 121 110 225 204 214 264 252 129 318 137 224 184 266 328 43 82 237 307 76 292 324 327 327 301 293 295 303 314 320 314 332 70 86 294 331 334 324 312 296 294 305 303 303 304 325 321 314 318 316 312 311 314 314 312 313 316 319 320 323 326
151 143 156 119 59 334 14 24 50 87 69 347 73 265 71 318 139 158 80 341 102 103 20 305 271 312 79 93 73 181 238 206 226 223 216 164 254 228 131 285 150 275 355 1 10 317 52 295 19 43 340 316 323 335 329 325 318 295 303 16 349 351 338 311 309 321 326 315 312 312 311 310 315 321 318 315 317 318 315 315 316 319 320 322 322 326 326 323
77 46 82 105 90 320 69 360 18 59 26 258 127 257 132 201 184 122 80 50 70 63 161 353 261 155 321 33 300 252 250 207 220 223 214 218 234 161 233 196 150 173 218 185 192 355 359 339 347 336 343 292 325 345 323 307 305 348 334 248 320 336 326 305 303 317 313 313 314 318 311 317 322 326 320 319 318 313 312 316 319 320 325 331 327 325 329 330